GW0571 Weather Reports


Display with metric or nautical units.
time (UTC)temp
F
wind
direction
speed
MPH
gust
MPH
rain 1hr
in
rain 24hr
in
rain mn
in
humidity
%
barometer
mb
20260503231650 53 220 1.0 3.0 0.00 0.00 0.00 44 1010.0
20260503231145 52 196 2.0 4.0 0.00 0.00 0.00 46 1010.1
20260503230642 53 202 1.0 4.0 0.00 0.00 0.00 47 1010.0
20260503230139 53 132 2.0 3.0 0.00 0.00 0.00 45 1010.0
20260503225637 53 204 2.0 3.0 0.00 0.00 0.00 44 1010.1
20260503225136 53 225 4.0 6.0 0.00 0.00 0.00 42 1010.1
20260503224634 53 136 2.0 4.0 0.00 0.00 0.00 44 1010.2
20260503224132 53 260 1.0 3.0 0.00 0.00 0.00 43 1010.0
20260503223630 53 239 1.0 9.0 0.00 0.00 0.00 42 1010.1
20260503223125 53 254 6.0 11.0 0.00 0.00 0.00 42 1010.1
20260503222623 53 251 4.0 5.0 0.00 0.00 0.00 43 1010.1
20260503222121 53 233 4.0 9.0 0.00 0.00 0.00 42 1010.2
20260503221619 53 263 1.0 7.0 0.00 0.00 0.00 42 1010.2
20260503221116 53 216 5.0 9.0 0.00 0.00 0.00 42 1010.1
20260503220613 54 245 6.0 12.0 0.00 0.00 0.00 42 1010.2
20260503220109 55 241 4.0 8.0 0.00 0.00 0.00 39 1010.3
20260503215606 54 351 3.0 11.0 0.00 0.00 0.00 41 1010.4
20260503215103 54 244 8.0 10.0 0.00 0.00 0.00 42 1010.3
20260503214602 54 326 2.0 10.0 0.00 0.00 0.00 41 1010.2
20260503214057 54 17 5.0 9.0 0.00 0.00 0.00 42 1010.3
20260503213556 54 28 2.0 5.0 0.00 0.00 0.00 42 1010.5
20260503213052 54 254 4.0 10.0 0.00 0.00 0.00 42 1010.4
20260503212550 53 257 4.0 14.0 0.00 0.00 0.00 42 1010.4
20260503212047 53 256 7.0 8.0 0.00 0.00 0.00 43 1010.1
20260503211544 53 258 6.0 14.0 0.00 0.00 0.00 43 1010.5
20260503211039 52 187 2.0 20.0 0.00 0.00 0.00 45 1010.5
20260503210537 52 251 11.0 12.0 0.00 0.00 0.00 44 1010.4
20260503210032 53 304 2.0 14.0 0.00 0.00 0.00 44 1010.5
20260503205529 51 315 3.0 17.0 0.00 0.00 0.00 46 1010.7
20260503205026 50 313 2.0 20.0 0.00 0.00 0.00 46 1010.6
20260503204523 51 354 1.0 26.0 0.00 0.00 0.00 45 1010.4
20260503204020 52 256 4.0 15.0 0.00 0.00 0.00 43 1010.3
20260503203517 52 242 9.0 21.0 0.00 0.00 0.00 42 1010.3
20260503203014 52 244 5.0 23.0 0.00 0.00 0.00 43 1010.3
20260503202512 52 244 4.0 19.0 0.00 0.00 0.00 42 1010.3
20260503202010 52 289 6.0 15.0 0.00 0.00 0.00 41 1010.2
20260503201508 52 293 1.0 6.0 0.00 0.00 0.00 40 1010.3
20260503201004 52 268 8.0 12.0 0.00 0.00 0.00 42 1010.3
20260503200501 53 255 5.0 15.0 0.00 0.00 0.00 38 1010.5
20260503195957 53 256 3.0 8.0 0.00 0.00 0.00 38 1010.5
20260503195455 53 251 9.0 9.0 0.00 0.00 0.00 39 1010.6
20260503194951 53 226 7.0 21.0 0.00 0.00 0.00 38 1010.3
20260503194449 54 266 8.0 20.0 0.00 0.00 0.00 36 1010.5
20260503193943 52 276 4.0 15.0 0.00 0.00 0.00 37 1010.4
20260503193439 52 256 2.0 11.0 0.00 0.00 0.00 37 1010.6
20260503192935 53 330 3.0 16.0 0.00 0.00 0.00 37 1010.6
20260503192432 53 284 3.0 11.0 0.00 0.00 0.00 38 1010.7
20260503191927 53 286 2.0 5.0 0.00 0.00 0.00 36 1010.8
20260503191425 52 276 3.0 6.0 0.00 0.00 0.00 36 1010.7
20260503190921 55 334 5.0 9.0 0.00 0.00 0.00 34 1010.5
20260503190419 53 237 12.0 14.0 0.00 0.00 0.00 35 1010.7
20260503185915 52 280 11.0 17.0 0.00 0.00 0.00 36 1010.9
20260503185412 52 271 6.0 23.0 0.00 0.00 0.00 37 1010.8
20260503184911 53 265 5.0 16.0 0.00 0.00 0.00 36 1010.7
20260503184408 53 244 10.0 12.0 0.00 0.00 0.00 35 1010.8
20260503183904 52 269 5.0 14.0 0.00 0.00 0.00 36 1011.0
20260503183401 54 271 9.0 9.0 0.00 0.00 0.00 35 1011.0
20260503182858 51 257 4.0 20.0 0.00 0.00 0.00 36 1011.2
20260503182357 52 284 6.0 13.0 0.00 0.00 0.00 35 1011.3
20260503181854 51 320 5.0 7.0 0.00 0.00 0.00 35 1011.5
20260503181351 51 342 2.0 11.0 0.00 0.00 0.00 35 1011.2
20260503180847 51 324 9.0 14.0 0.00 0.00 0.00 34 1011.3
20260503180345 52 238 17.0 24.0 0.00 0.00 0.00 34 1011.3
20260503175841 52 247 9.0 14.0 0.00 0.00 0.00 35 1011.4
20260503175339 51 272 1.0 15.0 0.00 0.00 0.00 37 1011.3
20260503174835 51 231 11.0 16.0 0.00 0.00 0.00 37 1011.4
20260503174333 53 312 2.0 7.0 0.00 0.00 0.00 36 1011.6
20260503173828 51 217 3.0 12.0 0.00 0.00 0.00 39 1011.6
20260503173325 52 245 7.0 10.0 0.00 0.00 0.00 39 1011.6
20260503172822 50 244 4.0 6.0 0.00 0.00 0.00 37 1012.0
20260503172320 50 234 3.0 16.0 0.00 0.00 0.00 38 1011.8
20260503171815 49 252 5.0 12.0 0.00 0.00 0.00 37 1012.0
20260503171312 50 236 4.0 9.0 0.00 0.00 0.00 40 1012.1
20260503170810 48 316 2.0 9.0 0.00 0.00 0.00 39 1012.1
20260503170306 49 306 5.0 7.0 0.00 0.00 0.00 36 1012.2
20260503150658 45 291 7.0 13.0 0.00 0.00 0.00 37 1013.0
20260503150154 45 305 4.0 18.0 0.00 0.00 0.00 38 1013.2
20260503140119 44 231 2.0 7.0 0.00 0.00 0.00 47 1013.0
20260503131048 43 337 4.0 10.0 0.00 0.00 0.00 49 1013.3
20260503130545 42 271 3.0 17.0 0.00 0.00 0.00 52 1013.0
20260503110436 36 0 2.0 4.0 0.00 0.00 0.00 79 1013.0
20260503090327 36 236 0.0 4.0 0.00 0.00 0.00 79 1012.4
20260503081254 36 309 0.0 4.0 0.00 0.00 0.00 79 1012.4
20260503080750 36 347 1.0 3.0 0.00 0.00 0.00 79 1012.4
20260503080248 36 308 0.0 2.0 0.00 0.00 0.00 79 1012.3
20260503072724 35 32 0.0 3.0 0.00 0.00 0.00 83 1012.3
20260503072221 34 102 0.0 1.0 0.00 0.00 0.00 86 1012.2
20260503071718 35 109 2.0 2.0 0.00 0.00 0.00 85 1012.2
20260503071215 35 76 0.0 1.0 0.00 0.00 0.00 85 1012.4
20260503070711 35 118 2.0 2.0 0.00 0.00 0.00 83 1012.1
20260503070209 35 208 0.0 2.0 0.00 0.00 0.00 83 1012.3
20260503060133 34 97 1.0 1.0 0.00 0.00 0.00 88 1012.5
20260503055125 34 64 0.0 2.0 0.00 0.00 0.00 86 1012.6
20260503054621 34 66 0.0 1.0 0.00 0.00 0.00 86 1012.6
20260503054118 34 125 2.0 2.0 0.00 0.00 0.00 86 1012.7
20260503053616 34 124 2.0 2.0 0.00 0.00 0.00 86 1012.7
20260503053114 34 156 1.0 2.0 0.00 0.00 0.00 85 1012.9
20260503052610 34 128 1.0 2.0 0.00 0.00 0.00 84 1012.9
20260503052107 34 68 0.0 1.0 0.00 0.00 0.00 83 1012.9
20260503051602 35 67 1.0 2.0 0.00 0.00 0.00 82 1013.0
20260503051100 35 92 1.0 2.0 0.00 0.00 0.00 82 1013.0
20260503050556 35 73 0.0 2.0 0.00 0.00 0.00 81 1013.1
20260503050053 35 114 2.0 2.0 0.00 0.00 0.00 82 1013.2
20260503045550 35 95 1.0 2.0 0.00 0.00 0.00 82 1013.3
20260503045047 35 120 2.0 2.0 0.00 0.00 0.00 82 1013.4
20260503044544 35 95 2.0 2.0 0.00 0.00 0.00 81 1013.3
20260503044042 35 108 1.0 2.0 0.00 0.00 0.00 80 1013.3
20260503043538 36 26 1.0 2.0 0.00 0.00 0.00 78 1013.5
20260503043034 36 118 2.0 2.0 0.00 0.00 0.00 76 1013.5
20260503042531 36 119 1.0 2.0 0.00 0.00 0.00 77 1013.5
20260503042027 36 122 2.0 3.0 0.00 0.00 0.00 76 1013.6
20260503041524 36 122 2.0 3.0 0.00 0.00 0.00 75 1013.5
20260503041022 36 124 2.0 2.0 0.00 0.00 0.00 74 1013.6
20260503040520 37 69 0.0 2.0 0.00 0.00 0.00 73 1013.5
20260503040017 37 145 0.0 1.0 0.00 0.00 0.00 74 1013.5
20260503035513 37 130 0.0 1.0 0.00 0.00 0.00 74 1013.4
20260503035011 37 113 0.0 1.0 0.00 0.00 0.00 74 1013.5
20260503034508 37 55 0.0 1.0 0.00 0.00 0.00 73 1013.5
20260503034005 37 345 0.0 0.0 0.00 0.00 0.00 73 1013.3
20260503033502 37 345 0.0 2.0 0.00 0.00 0.00 73 1013.5
20260503033000 37 55 0.0 0.0 0.00 0.00 0.00 73 1013.5
20260503032458 37 19 0.0 1.0 0.00 0.00 0.00 73 1013.5
20260503031956 37 13 0.0 2.0 0.00 0.00 0.00 72 1013.5
20260503031454 37 19 0.0 3.0 0.00 0.00 0.00 72 1013.6
20260503030950 37 0 0.0 3.0 0.00 0.00 0.00 72 1013.5
20260503030446 37 32 0.0 2.0 0.00 0.00 0.00 72 1013.4
20260503025943 38 88 0.0 2.0 0.00 0.00 0.00 72 1013.6
20260503025440 38 216 1.0 2.0 0.00 0.00 0.00 73 1013.6
20260503024938 38 34 0.0 1.0 0.00 0.00 0.00 72 1013.6
20260503024434 38 333 0.0 2.0 0.00 0.00 0.00 71 1013.7
20260503023931 38 38 0.0 2.0 0.00 0.00 0.00 71 1013.6
20260503023428 38 10 1.0 4.0 0.00 0.00 0.00 70 1013.4
20260503022925 39 27 2.0 3.0 0.00 0.00 0.00 70 1013.6
20260503022420 39 13 0.0 5.0 0.00 0.00 0.00 69 1013.5
20260503021916 39 12 3.0 7.0 0.00 0.00 0.00 68 1013.6
20260503021412 39 334 3.0 5.0 0.00 0.00 0.00 68 1013.5
20260503020910 39 342 1.0 3.0 0.00 0.00 0.00 68 1013.7
20260503020408 39 8 2.0 3.0 0.00 0.00 0.00 68 1013.8
20260503015903 39 1 1.0 3.0 0.00 0.00 0.00 67 1013.7
20260503015401 39 315 0.0 5.0 0.00 0.00 0.00 67 1013.7
20260503014856 39 40 2.0 7.0 0.00 0.00 0.00 66 1013.7
20260503014354 39 59 0.0 7.0 0.00 0.00 0.00 67 1013.6
20260503013852 39 31 5.0 7.0 0.00 0.00 0.00 66 1013.6
20260503013348 40 4 2.0 7.0 0.00 0.00 0.00 68 1013.7
20260503012845 40 4 2.0 4.0 0.00 0.00 0.00 69 1013.5
20260503012343 40 180 0.0 3.0 0.00 0.00 0.00 69 1013.6
20260503011840 40 302 1.0 6.0 0.00 0.00 0.00 68 1013.6
20260503011337 40 10 4.0 4.0 0.00 0.00 0.00 67 1013.4
20260503010833 40 349 3.0 7.0 0.00 0.00 0.00 65 1013.6
20260503010331 40 21 2.0 3.0 0.00 0.00 0.00 64 1013.4
20260503005827 40 344 3.0 4.0 0.00 0.00 0.00 63 1013.5
20260503005325 41 137 2.0 3.0 0.00 0.00 0.00 62 1013.3
20260503004821 41 334 0.0 3.0 0.00 0.00 0.00 62 1013.2
20260503004319 41 356 2.0 4.0 0.00 0.00 0.00 61 1013.2
20260503003816 41 296 1.0 3.0 0.00 0.00 0.00 60 1013.2
20260503003313 41 326 2.0 6.0 0.00 0.00 0.00 60 1013.2
20260503002810 41 3 2.0 3.0 0.00 0.00 0.00 58 1013.0
20260503002307 41 19 3.0 5.0 0.00 0.00 0.00 58 1013.0
20260503001803 41 21 2.0 2.0 0.00 0.00 0.00 58 1013.1
20260503001259 41 336 1.0 3.0 0.00 0.00 0.00 57 1013.0
20260503000757 41 345 2.0 4.0 0.00 0.00 0.00 57 1013.1
20260503000254 41 21 1.0 5.0 0.00 0.00 0.00 58 1012.9
20260502235751 42 39 1.0 4.0 0.00 0.00 0.00 58 1013.0
20260502235249 42 358 1.0 3.0 0.00 0.00 0.00 56 1013.2
20260502234745 42 282 1.0 4.0 0.00 0.00 0.00 55 1013.0
20260502234242 42 296 0.0 4.0 0.00 0.00 0.00 55 1013.0
20260502233738 42 6 0.0 3.0 0.00 0.00 0.00 57 1013.1
20260502233235 42 22 0.0 3.0 0.00 0.00 0.00 55 1012.8
20260502232731 43 344 1.0 4.0 0.00 0.00 0.00 54 1012.9
20260502232228 43 0 2.0 3.0 0.00 0.00 0.00 54 1012.8